This is the latest recevied weather packets stored in our database for station/object I4GOS-3. If no packets are shown the sender has not sent any weather packets the latest 1 day(s).
| Time | Temp. | Humidity | Pressure | Rain* | Wind** | Luminosity | Snow |
|---|---|---|---|---|---|---|---|
| 1836274517 | 18.33° C | 67% | 1024.6 hPa | 0 mm | 0 m/s | - | - |
| 1836274366 | 18.33° C | 67% | 1024.6 hPa | 0 mm | 0 m/s | - | - |
| 1836274216 | 18.33° C | 67% | 1024.6 hPa | 0 mm | 0 m/s | - | - |
| 1836274066 | 18.33° C | 68% | 1024.7 hPa | 0 mm | 0 m/s | - | - |
| 1778026717 | 16.67° C | 75% | 1012.2 hPa | 0 mm | 1.34 m/s, 114° | - | - |
| 1778026417 | 16.67° C | 75% | 1012.3 hPa | 0 mm | 1.34 m/s, 137° | - | - |
| 1778026117 | 16.67° C | 74% | 1012.3 hPa | 0 mm | 1.79 m/s, 135° | - | - |
| 1778025816 | 16.67° C | 74% | 1012.3 hPa | 0 mm | 1.34 m/s, 143° | - | - |
| 1778025516 | 16.67° C | 74% | 1012.3 hPa | 0 mm | 2.68 m/s, 130° | - | - |
| 1778025216 | 16.67° C | 74% | 1012.4 hPa | 0 mm | 3.58 m/s, 128° | - | - |
| 1778024916 | 16.11° C | 73% | 1012.3 hPa | 0 mm | 3.13 m/s, 123° | - | - |
| 1778024616 | 16.11° C | 73% | 1012.3 hPa | 0 mm | 2.24 m/s, 110° | - | - |
| 1778024316 | 16.11° C | 73% | 1012.4 hPa | 0 mm | 2.24 m/s, 138° | - | - |
| 1778024015 | 16.11° C | 73% | 1012.5 hPa | 0 mm | 1.79 m/s, 117° | - | - |
| 1778023715 | 16.11° C | 72% | 1012.6 hPa | 0 mm | 0.45 m/s, 122° | - | - |
| 1778023415 | 16.11° C | 72% | 1012.7 hPa | 0 mm | 2.24 m/s, 120° | - | - |
| 1778023114 | 16.11° C | 71% | 1012.7 hPa | 0 mm | 2.24 m/s, 125° | - | - |
| 1778022814 | 16.11° C | 70% | 1012.7 hPa | 0 mm | 3.58 m/s, 136° | - | - |
| 1778022514 | 16.11° C | 69% | 1012.7 hPa | 0 mm | 4.92 m/s, 146° | - | - |
| 1778022214 | 16.11° C | 68% | 1012.9 hPa | 0 mm | 1.79 m/s, 144° | - | - |
| 1778021914 | 15.56° C | 68% | 1012.9 hPa | 0 mm | 0 m/s | - | - |
| 1778021613 | 15.56° C | 67% | 1013 hPa | 0 mm | 0 m/s | - | - |
| 1778021313 | 16.11° C | 67% | 1013.1 hPa | 0 mm | 0 m/s | - | - |
| 1778021013 | 16.11° C | 66% | 1013 hPa | 0 mm | 1.79 m/s, 124° | - | - |
| 1778020712 | 16.11° C | 66% | 1013.1 hPa | 0 mm | 2.68 m/s, 126° | - | - |
* Rain latest hour (hover to see other rain measurements)
** Current wind speed in m/s (hover to see current wind gust speed)